{"data":{"norad_id":48105,"intl_designator":"2021-027P","name":"STARLINK-2440","alt_names":[],"object_type":"PAYLOAD","status":"ACTIVE","operator":null,"country":"US","launch_date":"2021-04-07","launch_site_code":"AFETR","launch_vehicle":null,"mission":null,"orbit_class":"UNKNOWN","rcs_meters":null,"size_class":null,"mass_kg":null,"dimensions":null,"purposes":["comms"],"wikipedia_slug":null,"has_3d_model":false,"image_url":null,"decayed_at":null,"tle_current":{"epoch":"2026-05-25T03:22:23.348064Z","epoch_age_seconds":62929,"freshness":"FRESH","line1":"1 48105U 21027P   26145.14054801 -.00002647  00000+0 -73600-4 0  9991","line2":"2 48105  53.1608 105.6721 0001673  91.7467 268.3726 15.31680998285117","mean_motion":15.31680998,"eccentricity":0.0001673,"inclination_deg":53.1608,"raan_deg":105.6721,"arg_perigee_deg":91.7467,"mean_anomaly_deg":268.3726,"bstar":-7.36e-5,"rev_number":28511,"period_min":94.014354286584,"perigee_km":469.65081318653,"apogee_km":471.9424663824,"semimajor_km":6848.9336397845,"source":"CELESTRAK","updated_at":"2026-05-25T13:38:16.643420Z"}}}